Location: Fisheating Creek Campgrounds
(26.9333°N, 81.3167°W)
Time: 11:52:32
(UTC-05:00)

Daily predictions for brighter satellites

Satellite Brightness Start Highest point End
(mag) Time Altitude Azimuth Time Altitude Azimuth Time Altitude Azimuth
Abrixas rocket 4.2 18:44:47 10° W 18:47:39 26° NW 18:50:31 10° NNE
Cosmos 1741 Rocket 4.0 18:43:41 10° S 18:48:49 61° ESE 18:53:57 10° NNE
FREGAT/IRIS 3.9 18:47:21 10° SE 18:49:47 22° ENE 18:52:14 10° NNE
Cosmos 1484 Rocket 4.1 18:49:46 10° S 18:53:35 46° W 18:57:23 10° NNW
Cosmos 2322 Rocket 2.8 18:48:45 10° NNW 18:54:17 63° WSW 18:59:49 10° S
Tiangong 2 1.2 18:52:46 10° NW 18:55:47 53° NE 18:58:47 10° ESE
H-2A R/B 3.6 18:54:45 10° SSE 18:56:53 15° SE 19:00:48 10° E
GPS 2-04 Rocket1 4.1 18:53:46 10° WNW 18:57:37 33° NNW 19:01:34 10° NE
Cosmos 1633 3.1 18:56:54 10° SSW 19:00:32 63° W 19:04:11 10° N
Cosmos 1536 Rocket 3.6 18:56:28 10° N 19:00:57 89° E 19:05:25 10° S
GEOS 3 Rocket 3.7 18:55:49 10° NE 19:01:01 59° ESE 19:06:13 10° SSW
Cosmos 1461 3.7 18:57:23 10° NW 19:01:22 55° WSW 19:05:29 10° SSE
OAO 3 Rocket 3.7 18:56:44 10° SW 19:01:29 48° SSE 19:05:43 13° ENE
Cosmos 1140 Rocket 4.4 18:57:42 10° SSW 19:02:39 51° WNW 19:07:39 10° N
METEOR-M 4.1 18:57:59 10° SSE 19:03:14 63° ENE 19:08:31 10° N
Cosmos 614 Rocket 4.4 19:00:49 10° SSW 19:05:51 66° WNW 19:10:54 10° N
Hubble Space Telescope 0.8 19:05:37 10° WSW 19:09:44 76° SSE 19:12:51 17° E
SJ-6B 3.0 19:06:33 10° SSE 19:10:27 50° ENE 19:14:17 10° N
H-2A ROCKET BODY 4.3 18:48:05 10° WNW 19:11:34 45° SW 19:16:45 10° SSE
ATLAS CENTAUR R/B 2.2 19:03:51 10° SSW 19:11:41 69° SE 19:14:33 12° NE
GPS 2-18 Rocket1 4.3 19:09:08 10° WSW 19:12:38 33° S 19:15:31 14° ESE
Cosmos 2322 3.8 19:08:37 10° N 19:14:14 56° ENE 19:19:47 10° SSE
ATLAS 2A CENTAUR R/B 1.4 19:15:16 10° W 19:17:35 66° S 19:22:35 16° ESE
Meteor 1-19 Rocket 4.2 19:12:54 10° N 19:18:38 72° E 19:24:25 10° SSE
Spot 2 Rocket 4.0 19:19:15 10° SE 19:23:48 35° ENE 19:28:22 10° N
H-2A R/B 3.6 19:22:45 22° ESE 19:23:52 26° ENE 19:27:00 10° NNE
Cosmos 2297 Rocket 3.2 19:20:47 10° SSE 19:25:05 23° ESE 19:26:19 21° E
GPS 2-14 Rocket1 4.4 19:25:57 10° SW 19:29:02 22° SSE 19:30:33 18° SE
DELTA 2 R/B (1) 3.8 19:25:19 10° NW 19:30:50 56° NNE 19:33:55 26° E
COSMOS 2428 3.2 19:26:34 10° N 19:31:51 38° ENE 19:35:31 18° SE
Cosmos 2237 4.3 19:26:19 10° N 19:31:52 51° ENE 19:37:23 10° SE
Resurs 01 Rocket 1.9 19:28:25 10° SSE 19:32:36 44° ENE 19:36:47 10° N
Helios 1B rocket 2.9 19:29:42 10° NNE 19:33:33 37° E 19:37:23 10° SSE
Atlas Centaur 2 3.2 19:27:58 10° SW 19:35:11 43° SSE 19:38:24 26° ESE
Cosmos 1238 Rocket 3.7 19:33:31 10° NNW 19:36:19 39° W 19:39:21 10° SSW
Meteor 2-4 Rocket 3.5 19:31:11 10° N 19:36:38 73° E 19:41:57 10° SSE
Cosmos 1536 4.2 19:35:56 10° SSW 19:39:42 41° W 19:43:29 10° N
Meteor 1-23 Rocket 4.2 19:34:02 10° N 19:39:45 62° E 19:45:22 10° SSE
Cosmos 2327 Rocket 4.4 19:34:34 10° S 19:40:45 87° E 19:47:05 10° N
Cosmos 2219 4.4 19:36:24 10° SW 19:41:50 43° WNW 19:47:17 10° N
Cosmos 2360 Rocket 2.6 19:38:11 10° NNW 19:43:47 65° WSW 19:49:21 10° S
Cosmos 2208 Rocket 4.0 19:38:42 10° N 19:44:05 64° ENE 19:49:22 10° SSE
HJ-1C 3.4 19:40:49 10° S 19:44:11 83° W 19:47:34 10° NNW
Cosmos 2219 Rocket 3.2 19:39:39 10° N 19:43:37 25° NE 19:43:37 25° NE
Cosmos 2227 Rocket 2.3 19:39:44 10° S 19:45:10 51° ESE 19:49:26 16° NE
Resurs 1-3 3.6 19:41:54 14° SSE 19:45:30 52° ENE 19:49:45 10° N
Skynet4D Del rocket 3.4 19:43:32 10° WSW 19:48:55 75° S 19:50:49 40° E
OTV 4 2.7 20:00:25 10° WNW 20:02:21 20° NNW 20:02:21 20° NNW
Cosmos 1486 Rocket 3.9 20:01:28 10° S 20:06:44 68° ESE 20:07:57 51° NE
ALOS 3.3 20:04:29 10° S 20:08:56 44° W 20:13:24 10° NNW
FUSE 3.9 20:07:05 10° W 20:12:27 72° S 20:12:55 67° SE
Cosmos 1025 Rocket 4.0 20:11:52 10° NNW 20:16:05 47° W 20:20:18 10° SSW
OAO 3 Copernicus 4.4 20:13:56 10° WNW 20:18:59 69° SSW 20:19:05 69° SSW
Cosmos 1544 Rocket 4.5 20:21:39 10° SSW 20:25:49 46° W 20:29:59 10° N
Cosmos 2333 Rocket 3.3 20:20:43 10° N 20:23:54 31° NNE 20:23:54 31° NNE
Cosmos 2341 Rocket 3.9 20:25:56 10° S 20:32:16 90° ESE 20:38:41 10° N
Nadezhda 3 Rocket 4.1 20:26:32 10° N 20:31:35 61° NNE 20:31:35 61° NNE
Cosmos 2154 Rocket 4.4 20:28:49 10° SSW 20:35:04 61° W 20:41:20 10° N
SEDSat Delta rocket 4.1 20:36:37 10° WSW 20:42:09 62° SW 20:42:09 62° SW
Cosmos 2285 Rocket 4.4 20:38:54 10° NNW 20:45:11 59° WSW 20:47:08 42° SSW
Hubble Space Telescope 3.3 20:46:55 10° W 20:48:14 20° W 20:48:14 20° W
Cosmos 2297 Rocket 3.7 21:03:46 10° SW 21:08:19 33° WNW 21:08:19 33° WNW
DASH 4.3 20:49:32 10° WSW 21:11:56 70° WSW 21:11:56 70° WSW
Cosmos 2237 Rocket 4.4 21:08:57 10° NNW 21:10:07 17° NNW 21:10:07 17° NNW
Atlas Centaur 2 4.0 21:17:38 10° WSW 21:21:05 30° WSW 21:21:05 30° WSW
Cosmos 2219 Rocket 4.4 21:23:14 10° NW 21:25:25 21° WNW 21:25:25 21° WNW
CZ-3 Stage 3 3.8 21:06:06 10° WSW 21:32:49 68° WSW 21:32:49 68° WSW
